Location: Gleizolles
(44.4833°N, 6.7667°E)
Time: 15:10:09
(UTC+00:00)

RS-15 - Pass Details

Date: 06 December 2022
Orbit: 1883 x 2162 km, 64.8° (Epoch: 05 February)

Event Time Altitude Azimuth Distance (km) Brightness Sun altitude
Rises 22:13:04 0° 318° (NW) 5,643 10.8 -63.7°
Reaches altitude 10° 22:18:03 10° 302° (WNW) 4,597 10.2 -64.2°
Enters shadow 22:21:56 16° 283° (WNW) 4,045 9.8 -64.6°
